[keps] orb12152.2l.amsat
Ray Hoad
ray.hoad at mypbmail.com
Thu May 31 19:24:38 PDT 2012
SB KEPS @ AMSAT $ORB12152.N
2Line Orbital Elements 12152.AMSAT
HR AMSAT ORBITAL ELEMENTS FOR AMATEUR SATELLITES IN NASA FORMAT
FROM WA5QGD FORT WORTH,TX May 31, 2012
Send SUBSCRIBE KEPS/UNSUBSCRIBE KEPS to majordomo at amsat.org only
BID: ORB12152.N
DECODE 2-LINE ELSETS WITH THE FOLLOWING KEY:
1 AAAAAU 00 0 0 BBBBB.BBBBBBBB .CCCCCCCC 00000-0 00000-0 0 DDDZ
2 AAAAA EEE.EEEE FFF.FFFF GGGGGGG HHH.HHHH III.IIII JJ.JJJJJJJJKKKKKZ
KEY: A-CATALOGNUM B-EPOCHTIME C-DECAY D-ELSETNUM E-INCLINATION F-RAAN
G-ECCENTRICITY H-ARGPERIGEE I-MNANOM J-MNMOTION K-ORBITNUM Z-CHECKSUM
TO ALL RADIO AMATEURS BT
AO-07
1 07530U 74089B 12151.58811357 -.00000027 00000-0 10000-3 0 3922
2 07530 101.4013 149.4787 0011811 318.5818 041.4347 12.53589516717848
FO-29
1 24278U 96046B 12152.47336529 .00000012 00000-0 45621-4 0 8532
2 24278 098.5853 255.3151 0351261 072.6425 291.2811 13.52983724779695
SO-33
1 25509U 98061B 12151.87192716 .00000443 00000-0 78012-4 0 02453
2 25509 031.4312 071.6736 0351756 051.7820 311.3975 14.28752908710178
RS-22
1 27939U 03042A 12152.52595080 .00000362 00000-0 77584-4 0 4041
2 27939 097.8146 354.1969 0012797 322.7206 037.3132 14.64023021463445
VO-52
1 28650U 05017B 12151.84913769 .00000848 00000-0 11003-3 0 01159
2 28650 097.5979 183.6508 0027812 097.6351 262.8044 14.82936594382405
HO-68
1 36122U 09072B 12152.26582745 -.00000044 00000-0 00000 0 0 5110
2 36122 100.3617 211.9522 0007703 145.5705 214.5908 13.16295907118169
UO-11
1 14781U 84021B 12151.95353200 .00000528 00000-0 75900-4 0 08925
2 14781 097.9557 211.6239 0010185 089.2919 270.9462 14.80443199517389
AO-16
1 20439U 90005D 12151.96932977 .00000105 00000-0 54740-4 0 04786
2 20439 098.4291 095.8266 0010137 207.0356 153.0302 14.32053373167531
LO-19
1 20442U 90005G 12151.85522397 .00000098 00000-0 51859-4 0 04104
2 20442 098.3947 098.7824 0011434 198.4416 161.6356 14.32271812167708
AO-27
1 22825U 93061C 12151.88683577 .00000092 00000-0 52982-4 0 01184
2 22825 098.5742 094.9715 0008135 337.3220 022.7593 14.29460509974006
IO-26
1 22826U 93061D 12152.59085686 .00000114 00000-0 61455-4 0 8650
2 22826 098.5686 096.0393 0008581 328.8168 031.2506 14.29734643974237
GO-32
1 25397U 98043D 12151.61158424 .00000142 00000-0 80714-4 0 07899
2 25397 098.3618 131.1877 0001295 022.4947 337.6285 14.23276576721520
NO-44
1 26931U 01043C 12152.53272562 .00000289 00000-0 14449-3 0 526
2 26931 067.0511 163.2651 0007678 265.8413 094.1816 14.29799433556864
SO-50
1 27607U 02058C 12151.64642545 .00000160 00000-0 45610-4 0 07752
2 27607 064.5586 348.2584 0083483 251.9889 107.2074 14.72373183507383
CO-55
1 27844U 03031E 12151.60049593 .00000246 00000-0 13368-3 0 3853
2 27844 098.7032 160.2349 0008875 275.5884 084.4270 14.21021013462392
CO-57
1 27848U 03031J 12152.23488368 .00000207 00000-0 11626-3 0 3362
2 27848 098.7113 160.1858 0008700 279.9108 080.1075 14.20773071462421
AO-51
1 28375U 04025K 12151.85941446 .00000179 00000-0 66077-4 0 2784
2 28375 098.1461 117.9434 0084518 093.0126 268.0746 14.40944951416276
CP3
1 31129U 07012N 12151.59194048 .00000458 00000-0 11389-3 0 01798
2 31129 097.8819 160.4038 0101063 177.2819 182.8935 14.53054704271423
CO-65
1 32785U 08021C 12151.83643498 .00000696 00000-0 91997-4 0 03232
2 32785 097.8015 213.2976 0015705 116.8585 243.4210 14.82950267221194
PRISM
1 33493U 09002B 12152.53723816 .00002084 00000-0 25765-3 0 7438
2 33493 098.1686 292.7064 0018506 355.3409 004.7613 14.83819641181287
SOHLA-1
1 33496U 09002E 12151.95112459 .00000258 00000-0 51265-4 0 07516
2 33496 098.1033 263.8025 0007671 094.8502 265.3579 14.69962568179714
SO-67
1 35870U 09049F 12152.50878226 .00003287 00000-0 13981-3 0 46
2 35870 097.2338 188.8428 0001276 172.0930 324.3281 15.23691360150076
TISAT-1
1 36799U 10035E 12152.46071523 .00001524 00000-0 19924-3 0 229
2 36799 098.0617 228.6720 0013974 222.0750 137.9387 14.81903315102013
STUDSAT
1 36801U 10035G 12151.94827922 .00004727 00000-0 57152-3 0 04055
2 36801 098.0684 228.7911 0011978 211.3840 148.6649 14.84155037101963
FO-69
1 37227U 0 12151.15929396 .00000463 00000-0 73377-4 0 01935
2 37227 071.9694 351.7422 0016871 348.8065 011.2719 14.77063952033438
FO-70
1 37380U 0 12151.16181620 .00000432 00000-0 69286-4 0 01992
2 37380 071.9727 352.2718 0017548 346.0030 014.0635 14.76816061033325
ALMASAT-1
1 38078U 12006B 12152.57568018 .00007924 00000-0 22157-3 0 2575
2 38078 069.4967 354.8759 0761879 269.4632 081.9257 14.08753391 15212
XATCOBEO
1 38082U 12006F 12152.51347180 .00021288 00000-0 52236-3 0 2782
2 38082 069.4933 353.5713 0743300 268.7054 082.9285 14.15081016 15235
NOAA-10
1 16969U 86073A 12151.70790577 -.00000067 00000-0 -93997-5 0 09398
2 16969 098.5819 181.0721 0011346 287.3665 072.6253 14.27552720337378
NOAA-11
1 19531U 88089A 12151.74945092 -.00000245 00000-0 -10424-3 0 09382
2 19531 098.7316 237.2739 0010364 275.2910 084.7081 14.14967388222047
NOAA-12
1 21263U 91032A 12152.83335321 .00000108 00000-0 45651-4 0 4267
2 21263 098.7268 174.5777 0012949 247.2311 112.7989 14.25497576 94201
MET-3/5
1 21655U 91056A 12151.75232161 .00000409 00000-0 10302-2 0 00012
2 21655 082.5545 164.5047 0013326 012.0571 348.0868 13.17034671999364
MET-2/21
1 22782U 93055A 12152.23539284 -.00000059 00000-0 -66465-4 0 4318
2 22782 082.5488 045.9653 0021856 196.5279 163.5164 13.83684450946828
OKEAN-4
1 23317U 94066A 12151.97028263 .00000660 00000-0 76506-4 0 09055
2 23317 082.5414 047.3023 0023207 051.3588 308.9699 14.83778312952256
NOAA-14
1 23455U 94089A 12152.84165637 .00000119 00000-0 62712-4 0 9072
2 23455 098.8253 236.5468 0009731 012.0328 348.1547 14.13900774898571
NOAA-15
1 25338U 98030A 12152.83796575 .00000242 00000-0 10318-3 0 2809
2 25338 098.6898 139.9034 0010985 151.2453 208.9819 14.25075110730535
RESURS
1 25394U 98043A 12151.97949664 -.00000007 00000-0 14747-4 0 01246
2 25394 098.3186 141.1237 0000908 340.4726 019.6419 14.24288050721950
FENGYUN1
1 25730U 99025A 12152.46267719 .00001561 00000-0 91514-3 0 6167
2 25730 098.8451 111.7354 0020661 052.6757 307.6289 14.09554688672250
OKEAN-0
1 25860U 99039A 12151.95274414 .00000444 00000-0 74682-4 0 06526
2 25860 097.9336 114.9498 0000929 036.6594 323.4675 14.74201673692034
NOAA-16
1 26536U 00055A 12152.81880403 .00000084 00000-0 45023-4 0 7645
2 26536 099.0953 194.6888 0011254 127.0261 233.2422 14.12741907602726
NOAA-17
1 27453U 02032A 12152.86673554 .00000225 00000-0 97125-4 0 7224
2 27453 098.3376 180.7292 0011280 199.8970 160.2259 14.24438479516433
NOAA-18
1 28654U 05018A 12152.90553951 .00000282 00000-0 15477-3 0 1987
2 28654 099.0455 110.8604 0013833 197.4644 162.6526 14.11656240362269
NOAA-19
1 33591U 09005A 12152.90980568 .00000066 00000-0 36748-4 0 3900
2 33591 098.8638 092.9022 0015064 068.0751 292.2489 14.11341429170714
HUBBLE
1 20580U 90037B 12150.12705611 .00001696 00000-0 11220-3 0 77
2 20580 028.4710 268.2752 0003169 210.6462 149.3849 15.02512890 11868
ISS
1 25544U 98067A 12152.87461806 .00007984 00000-0 11911-3 0 6688
2 25544 051.6384 203.9702 0010241 015.6124 317.7232 15.56032399775466
CO-58
1 28895U 05043F 12152.57347966 .00000431 00000-0 97565-4 0 1886
2 28895 097.9179 019.5753 0017562 199.0130 161.0451 14.60623631351234
FALCON
1 30776U 07006E 12151.97009576 .00003318 00000-0 21713-3 0 03647
2 30776 035.4322 021.9930 0002188 267.7353 092.3105 15.07448537287652
MAST
1 31126U 07012K 12152.57097832 .00000373 00000-0 93296-4 0 4705
2 31126 097.8743 164.6446 0093994 161.7580 198.7028 14.54149000271852
CAPE1
1 31130U 07012P 12151.69763757 .00000111 00000-0 35462-4 0 4800
2 31130 097.8848 160.2139 0101364 177.5748 182.5927 14.52922381271236
COMPASS
1 32787U 08021E 12151.67295968 .00001839 00000-0 22706-3 0 03186
2 32787 097.8009 213.3945 0016345 116.0294 244.2616 14.83946065221210
AAUSAT2
1 32788U 08021F 12151.84862412 .00001110 00000-0 13848-3 0 3066
2 32788 097.8033 213.9385 0016304 115.9801 244.3034 14.84259814221269
DO-64
1 32789U 08021G 12151.71134102 .00002277 00000-0 26803-3 0 3229
2 32789 097.8130 215.7592 0015958 113.7400 246.5479 14.85707327221280
CO-66
1 32791U 08021J 12152.19535630 .00001188 00000-0 15093-3 0 3067
2 32791 097.8005 213.6609 0016749 114.8526 245.4484 14.83372899221228
RS-30
1 32953U 08025A 12152.38736904 .00000010 00000-0 00000 0 0 8256
2 32953 082.4996 305.5851 0018567 348.0571 012.0072 12.43023859182475
TACSAT-3
1 35001U 09028A 12121.72616188 .15204951 73582-5 42606-3 0 00016
2 35001 040.4259 351.8840 0007146 275.2650 085.0693 16.45157000166990
PHARMSAT
1 35002U 09028B 12152.22064957 .00088984 00000-0 43403-3 0 9168
2 35002 040.4581 175.8128 0005799 111.0709 249.0764 15.81244893171630
METEOR-M
1 35865U 09049A 12152.33079989 -.00000011 00000-0 14622-4 0 4579
2 35865 098.6556 206.9713 0003343 095.8330 264.3229 14.21863013140201
RS-38
1 35869U 09049E 12152.49515934 .00000029 00000-0 32660-4 0 4654
2 35869 098.6512 207.1306 0005493 097.2346 262.9457 14.22071836140245
JUGNU
1 37839U 11058B 12150.23237523 .00000619 00000-0 19019-3 0 01587
2 37839 019.9583 113.0534 0019605 016.2085 343.8895 14.12056232032569
SRMSAT
1 37841U 11058D 12150.26108914 .00000264 00000-0 00000-0 0 01600
2 37841 019.9697 117.3923 0011769 341.2744 018.7278 14.10140464032521
RAX-2
1 37853U 11061D 12152.55650693 .00004568 00000-0 36819-3 0 1912
2 37853 101.7166 185.1679 0247363 038.3562 323.4920 14.79895900 31930
AUBIESAT
1 37854U 11061E 12152.58308381 .00004963 00000-0 39403-3 0 1922
2 37854 101.7153 185.4222 0247835 038.0762 323.7665 14.80262451 31937
HRBE
1 37855U 11061F 12151.98678002 .00004904 00000-0 38957-3 0 01924
2 37855 101.7195 184.5267 0248738 039.4831 322.4202 14.80122460031846
RS-39
1 38051U 11062C 12152.54274817 .00007502 00000-0 31809-3 0 3820
2 38051 051.6329 239.1371 0012196 339.5104 146.8636 15.24038817 19435
E-STAR
1 38079U 12006C 12151.90691471 .00014681 00000-0 36132-3 0 2602
2 38079 069.4949 355.1413 0748960 269.6523 081.8862 14.13905201 15149
GOLIAT
1 38085U 12006J 12152.59466905 .00016479 00000-0 40790-3 0 2407
2 38085 069.4916 353.7821 0752577 268.9923 082.4859 14.12984601 15235
HORYU-2
1 38340U 12025D 12151.12852606 .00000796 00000-0 14123-3 0 210
2 38340 098.1740 090.8180 0013874 031.9477 328.2512 14.69939215 1822
/EX
More information about the Keps
mailing list